Weather History for TNCC - December, 2012

Change the Weather History Date:

Friday, December 14, 2012

  Actual Average Record
Temperature  
Mean Temperature 78 °F -  
Max Temperature 84 °F 84 °F 89 °F (2014)
Min Temperature 71 °F 75 °F 71 °F (2012)
Cooling Degree Days 12    
Growing Degree Days 28 (Base 50)    
Moisture  
Dew Point 69 °F    
Average Humidity 71    
Maximum Humidity 89    
Minimum Humidity 49    
Precipitation  
Precipitation 0.00 in 0.10 in - ()
Sea Level Pressure  
Sea Level Pressure 29.86 in    
Wind  
Wind Speed 6 mph ()    
Max Wind Speed 12 mph    
Max Gust Speed -    
Visibility 7.4 miles    
Events      
Averages and records for this station are not official NWS values.
T = Trace of Precipitation, MM = Missing Value Source: Averaged Metar Reports

Daily Weather History Graph

Daily Weather History Graph

Search for Another Location

Airport or City:

Trip Planner

Search our weather history database for the weather conditions in past years. The results will help you decide how hot, cold, wet, or windy it might be!

Date:

Astronomy

Dec. 14, 2012 Rise Set
Actual Time 6:48 AM AST 6:13 PM AST
Civil Twilight 6:25 AM AST 6:36 PM AST
Nautical Twilight 5:58 AM AST 7:02 PM AST
Astronomical Twilight 5:32 AM AST 7:29 PM AST
Moon 7:57 AM AST (12/14) 7:51 PM AST (12/14)
Length of Visible Light 12h 11m
Length of Day
11h 25m
Waxing Crescent, 3% of the Moon is Illuminated
Dec 14
Waxing Crescent
Dec 20
First Quarter
Dec 28
Full
Jan 4
Last Quarter
Jan 11
New

Hourly Weather History & Observations

Time (AST) Temp. Heat Index Dew Point Humidity Pressure Visibility Wind Dir Wind Speed Gust Speed Precip Events Conditions
12:00 AM 75.2 °F - 71.6 °F 89% 29.89 in 6.2 mi ESE 5.8 mph - N/A   Partly Cloudy
1:00 AM 75.2 °F - 69.8 °F 83% 29.86 in 6.2 mi ESE 6.9 mph - N/A   Partly Cloudy
2:00 AM 76 °F - 70 °F 78% 29.86 in 16 mi ESE 8.1 mph - -   Scattered Clouds
2:00 AM 77.0 °F - 69.8 °F 78% 29.86 in 6.2 mi ESE 8.1 mph - N/A   Partly Cloudy
3:00 AM 77.0 °F - 68.0 °F 74% 29.83 in 6.2 mi East 11.5 mph - N/A   Partly Cloudy
4:00 AM 75.2 °F - 68.0 °F 78% 29.83 in 6.2 mi ESE 6.9 mph - N/A   Partly Cloudy
5:00 AM 73 °F - 68 °F 79% 29.85 in 16 mi SE 4.6 mph - -   Scattered Clouds
5:00 AM 73.4 °F - 68.0 °F 83% 29.83 in 6.2 mi SE 4.6 mph - N/A   Partly Cloudy
6:00 AM 73.4 °F - 68.0 °F 83% 29.86 in 6.2 mi SE 4.6 mph - N/A   Partly Cloudy
7:00 AM 71.6 °F - 68.0 °F 88% 29.86 in 6.2 mi SE 5.8 mph - N/A   Partly Cloudy
8:00 AM 79 °F - 68 °F 60% 29.89 in 16 mi East 6.9 mph - -   Scattered Clouds
8:00 AM 78.8 °F - 68.0 °F 69% 29.89 in 6.2 mi East 6.9 mph - N/A   Partly Cloudy
9:00 AM 80.6 °F 83.2 °F 68.0 °F 65% 29.92 in 6.2 mi East 6.9 mph - N/A   Partly Cloudy
10:00 AM 82.4 °F 84.6 °F 66.2 °F 58% 29.92 in - East 5.8 mph - N/A   Clear
11:00 AM 83 °F - 67 °F 49% 29.92 in 31 mi East 8.1 mph - -   Scattered Clouds
11:00 AM 82.4 °F 85.4 °F 68.0 °F 62% 29.92 in - East 5.8 mph - N/A   Clear
12:00 PM 82.4 °F 85.4 °F 68.0 °F 62% 29.89 in 6.2 mi ENE 5.8 mph - N/A   Partly Cloudy
1:00 PM 84.2 °F 86.6 °F 66.2 °F 55% 29.86 in 6.2 mi ENE 6.9 mph - N/A   Partly Cloudy
2:00 PM 82.4 °F 85.4 °F 68.0 °F 62% 29.83 in 6.2 mi ENE 5.8 mph - N/A   Partly Cloudy
3:00 PM 82.4 °F 85.4 °F 68.0 °F 62% 29.83 in 6.2 mi ENE 6.9 mph - N/A   Partly Cloudy
4:00 PM 82.4 °F 85.4 °F 68.0 °F 62% 29.80 in 6.2 mi ENE 5.8 mph - N/A   Partly Cloudy
5:00 PM 80.6 °F 83.2 °F 68.0 °F 65% 29.80 in 6.2 mi East 5.8 mph - N/A   Partly Cloudy
6:00 PM 78.8 °F - 68.0 °F 69% 29.83 in 6.2 mi ENE 4.6 mph - N/A   Scattered Clouds
7:00 PM 78.8 °F - 68.0 °F 69% 29.83 in 6.2 mi East 6.9 mph - N/A   Scattered Clouds
8:00 PM 78.8 °F - 68.0 °F 69% 29.83 in 6.2 mi East 8.1 mph - N/A   Partly Cloudy
9:00 PM 77.0 °F - 71.6 °F 83% 29.86 in 6.2 mi ENE 10.4 mph - N/A   Partly Cloudy
11:00 PM 76 °F - 71 °F 79% 29.89 in 37 mi East 6.9 mph - -   Partly Cloudy
11:00 PM 77.0 °F - 71.6 °F 83% 29.89 in 6.2 mi ESE 6.9 mph - N/A   Scattered Clouds